Theta_e
324 324 324 325 325 325 324 324 324 325 326 326 326 327 328 327 328 328 328 328 328 328 328 328 330 329 328 328 327 325 320 316 315 313 309 311 325 330 331 333 331 332 330 314 311 309 309 310 309 308 309 310 308 309 308 311 308 310 303 301 299 299 298 301 299 300 301 300 303 303 300 300 299 300 302 301 300 300 302 301 304 304 303 305 308 310 310 310
323 323 324 323 323 324 324 324 324 325 326 326 326 327 327 327 327 328 328 327 327 328 328 328 329 329 328 326 327 323 318 320 312 310 309 317 325 330 331 331 331 331 320 310 308 307 308 307 308 308 309 307 308 306 307 307 307 305 301 300 298 299 301 303 302 302 301 301 302 303 302 299 299 299 301 298 301 302 300 304 304 304 307 308 307 307 307 306
322 322 322 322 323 323 324 324 324 324 325 325 325 325 326 327 327 328 328 327 327 327 328 328 329 329 327 325 325 321 320 316 313 307 309 320 326 329 330 330 330 326 309 307 309 307 306 305 306 308 309 305 307 305 307 304 307 304 302 300 300 303 301 300 301 301 302 302 301 301 301 298 300 299 300 298 299 301 301 301 302 302 303 305 306 308 307 305
322 322 322 322 323 323 323 323 324 324 324 324 325 325 326 326 327 328 327 327 327 327 327 328 328 328 327 325 324 325 321 315 306 308 312 324 327 329 328 330 325 314 309 308 308 307 304 307 308 308 307 305 306 305 303 303 303 304 301 300 301 300 300 301 301 302 301 300 300 300 301 299 299 298 299 299 298 301 302 304 302 301 302 303 305 306 306 305
321 321 321 321 322 323 323 323 324 324 324 325 324 325 326 327 327 327 326 326 326 327 328 328 328 328 325 324 320 319 317 306 304 310 314 323 327 327 326 326 321 310 308 305 305 307 308 308 307 307 306 303 305 304 302 302 302 302 301 303 302 299 299 301 302 300 300 298 298 299 298 299 300 299 298 299 297 299 302 303 304 303 303 303 303 304 305 306
321 321 321 321 322 321 321 322 323 323 324 323 324 325 326 327 327 326 326 326 326 326 328 328 328 327 326 321 319 318 313 297 307 312 321 322 325 324 325 317 318 306 307 308 306 307 308 308 307 305 304 303 301 301 302 300 300 299 302 300 301 301 300 300 300 298 298 299 299 299 299 298 299 298 300 299 299 302 305 305 303 303 303 304 303 305 306 306
321 320 320 320 320 321 320 321 321 322 322 324 325 325 326 327 328 325 325 325 325 327 328 328 327 326 324 318 312 317 309 306 311 315 318 320 322 318 320 315 314 311 308 309 308 308 306 306 306 302 302 302 300 300 301 299 300 299 300 299 300 300 299 300 300 297 298 297 298 301 299 297 299 298 297 297 302 303 304 304 303 303 304 305 305 306 306 303
320 320 319 319 319 320 320 321 321 321 322 323 324 325 326 327 327 325 325 325 326 326 327 327 326 324 322 320 318 310 309 306 310 312 313 317 312 310 313 315 309 315 308 304 305 307 304 304 304 301 302 300 301 300 300 299 298 299 299 299 299 298 299 300 299 298 298 298 300 298 296 299 300 298 298 299 302 303 302 303 303 304 304 305 305 304 302 301
320 319 319 318 318 317 319 320 320 321 321 323 324 325 326 326 325 324 324 325 326 327 327 326 324 322 317 322 315 309 305 312 308 307 311 310 308 308 315 311 309 308 305 306 305 307 307 304 303 303 300 300 300 300 299 298 299 298 299 299 299 300 300 299 298 297 297 298 296 296 299 301 297 299 296 301 300 301 302 303 303 303 303 303 303 301 299 299
319 319 319 318 317 317 319 318 319 320 321 323 324 325 326 326 325 324 324 325 326 327 326 326 323 318 321 319 312 304 307 306 306 308 308 306 306 309 311 310 309 308 308 306 308 308 307 305 304 305 305 301 299 299 298 297 298 297 298 298 298 299 298 298 297 298 297 297 296 298 299 300 299 298 297 300 301 302 304 304 302 302 302 302 300 299 299 299
319 319 318 318 317 317 319 318 319 320 321 323 325 325 326 325 325 323 323 325 326 326 327 324 321 320 319 313 308 303 312 311 310 310 307 308 310 309 309 308 306 308 307 308 308 305 305 305 306 304 304 300 298 299 297 299 297 298 297 297 298 299 299 298 297 298 298 296 296 298 298 299 296 297 298 299 302 304 302 303 302 302 301 299 299 298 299 298
318 318 318 318 318 317 318 318 318 319 321 323 323 324 323 323 323 322 323 325 326 327 325 322 317 313 313 311 306 306 309 309 309 310 309 310 308 309 308 305 305 310 308 306 308 309 308 307 306 303 300 301 299 299 298 298 298 296 295 295 298 300 297 298 298 298 299 296 295 298 295 295 296 297 300 301 303 303 302 300 301 300 299 299 298 297 297 297
317 317 317 317 317 317 317 318 318 319 321 322 323 323 322 322 322 322 324 325 327 325 323 318 316 319 316 306 307 311 309 307 307 309 312 310 309 306 306 307 306 305 307 308 307 308 308 306 305 302 303 301 299 297 297 298 296 295 295 295 297 297 297 296 300 299 299 296 296 297 291 295 297 298 300 301 302 302 300 299 299 298 297 297 297 297 296 296
317 317 317 317 317 317 317 317 317 319 321 323 324 324 323 321 322 323 324 325 324 325 319 319 319 317 311 304 309 310 307 309 307 312 309 311 309 311 307 308 308 307 310 307 307 307 307 303 305 301 301 300 299 301 297 297 297 296 295 295 295 293 295 301 297 298 297 296 297 301 291 294 298 300 300 302 301 300 297 298 297 297 297 296 296 296 295 295
316 316 316 316 316 316 316 316 317 319 322 322 322 323 321 320 322 323 325 324 324 323 321 317 320 315 307 305 309 310 314 309 311 310 309 308 308 310 308 307 307 304 304 306 309 305 303 305 304 301 300 297 298 297 297 296 297 296 294 294 297 293 295 299 298 297 294 297 300 298 293 294 297 298 301 302 301 299 297 296 295 295 295 295 295 294 294 294
316 316 316 316 316 316 316 315 316 319 321 321 321 320 319 320 322 324 324 322 320 320 320 319 317 312 307 303 307 318 313 310 309 311 308 308 309 307 307 303 305 304 304 304 303 302 304 305 300 298 298 300 299 297 297 298 298 297 294 293 293 293 294 295 295 297 297 297 298 296 291 295 296 300 301 302 300 298 296 294 294 294 294 294 294 294 294 294
316 316 315 315 316 316 315 316 317 319 320 319 319 319 319 321 321 323 318 316 315 317 317 312 309 308 304 308 310 308 307 310 310 313 311 306 304 305 304 306 303 303 303 303 304 303 304 302 297 298 299 298 297 298 293 294 293 294 297 292 294 291 292 292 297 295 297 296 293 297 293 294 296 298 300 300 298 297 294 293 293 293 293 293 293 293 293 293
315 315 315 315 316 315 315 315 318 319 319 318 318 319 319 321 317 323 319 316 316 315 313 313 315 310 302 307 302 304 308 307 312 309 308 307 303 304 304 303 301 301 303 302 305 302 301 300 300 298 299 299 298 296 291 287 290 290 291 291 292 293 292 291 291 296 295 295 293 294 294 294 296 298 298 298 297 295 293 292 292 291 292 292 292 292 292 292
315 315 315 315 315 315 315 316 318 319 319 320 320 320 320 315 315 313 308 311 311 312 307 306 305 301 299 302 306 308 309 308 308 306 306 308 306 303 304 302 303 301 301 300 300 300 300 299 302 298 294 294 294 294 292 293 293 291 292 291 290 290 291 291 294 296 293 291 292 293 291 292 294 295 296 296 296 294 293 293 292 291 291 291 291 292 292 292
315 315 314 315 314 314 314 316 318 318 318 317 317 315 320 309 313 306 308 308 303 303 303 302 301 301 304 305 305 310 309 306 304 306 307 305 305 302 301 300 306 303 300 297 299 297 297 294 293 291 292 293 294 293 293 294 293 292 292 292 291 292 292 294 294 295 295 291 291 292 293 292 293 294 294 294 293 293 292 291 290 290 290 290 291 291 291 291
314 314 314 314 314 314 315 317 318 316 316 317 314 308 299 299 301 300 298 303 301 302 302 304 303 303 304 304 308 305 302 303 302 304 304 303 301 301 299 301 300 298 297 295 297 297 294 292 294 294 293 293 293 293 292 292 292 291 292 292 291 293 290 293 293 294 295 289 289 292 291 291 293 293 293 292 290 288 290 289 289 289 289 290 290 290 290 291
314 313 313 313 313 314 315 317 317 315 315 317 311 301 301 301 301 300 301 303 305 302 301 303 301 303 305 305 306 303 301 301 302 303 306 305 303 300 299 299 296 294 298 298 297 295 293 290 293 292 293 292 291 292 291 292 292 294 292 292 291 292 291 294 294 294 293 290 288 290 288 290 292 293 292 289 288 288 290 290 288 288 288 289 289 290 290 290
313 313 313 313 313 314 316 316 315 315 315 313 308 306 306 309 307 306 307 302 300 304 301 303 304 303 303 304 302 302 300 297 296 302 302 303 301 299 299 297 296 295 297 295 292 291 288 293 290 293 292 291 291 291 292 293 294 292 291 290 288 291 288 286 292 292 292 289 288 289 288 289 292 293 290 290 288 287 288 288 290 290 289 289 289 289 288 288
313 312 312 312 313 315 316 315 313 313 310 310 308 307 309 307 306 308 305 301 300 302 302 304 304 305 305 302 303 302 299 298 296 298 304 302 298 297 298 295 294 294 293 292 292 290 288 292 292 292 292 292 292 293 292 291 290 293 292 290 289 288 288 288 287 289 291 292 290 289 286 287 290 288 288 288 288 287 287 287 287 289 290 290 290 289 289 287
312 312 311 312 313 315 315 313 311 308 308 311 307 310 309 307 306 308 303 299 297 300 304 304 305 307 304 306 305 301 299 297 299 299 300 300 297 297 296 294 294 293 293 292 290 291 292 291 291 292 293 293 292 291 292 291 288 291 290 288 288 289 288 287 288 288 285 285 289 286 279 283 287 289 288 288 287 285 286 285 285 286 288 288 286 286 287 288
312 311 311 312 314 314 313 307 309 310 308 307 310 310 307 306 305 305 300 296 295 298 303 300 309 302 308 301 304 301 298 296 298 300 299 301 298 297 294 294 292 291 292 292 291 290 290 290 293 292 293 293 292 290 291 291 289 288 289 289 289 289 288 287 287 287 282 279 287 289 279 277 287 287 286 285 284 284 285 285 285 286 286 286 286 286 286 286
311 311 311 313 313 313 308 303 310 309 304 308 311 310 307 307 306 307 299 297 292 301 299 302 303 302 306 300 298 298 295 295 297 298 297 299 296 299 292 292 293 292 292 293 289 288 290 291 292 293 292 291 290 289 291 291 290 288 289 289 290 288 287 287 287 287 284 289 290 288 285 279 279 286 287 285 284 282 283 283 284 285 285 285 285 286 286 286
310 310 311 313 312 312 304 309 310 307 301 310 312 310 308 307 307 304 299 288 289 302 298 300 302 306 304 299 298 295 294 295 294 296 296 298 298 296 294 292 291 291 291 290 284 292 290 292 291 291 290 290 289 291 291 291 290 289 288 290 288 287 287 287 287 285 285 283 279 284 287 280 282 286 286 285 281 281 280 282 283 284 285 285 285 285 286 286
310 310 311 312 311 311 313 311 310 307 311 310 310 309 308 307 305 301 295 286 299 297 305 299 308 302 300 299 296 293 295 296 294 296 297 295 300 295 293 292 292 291 290 291 289 291 291 290 291 291 290 289 290 289 289 291 287 289 290 289 289 289 289 288 285 284 283 280 276 282 285 279 279 284 284 282 281 278 279 281 283 284 284 284 284 285 286 286
309 310 311 311 310 311 311 311 309 310 311 310 309 308 307 304 301 297 290 284 300 294 299 300 301 298 296 297 296 294 295 294 293 294 294 293 296 299 292 294 292 292 292 290 290 292 289 292 292 291 290 291 290 289 289 287 287 288 287 289 287 287 286 286 285 283 281 276 279 283 282 279 272 280 279 279 278 279 280 281 283 283 284 284 285 285 285 285
309 310 310 308 308 307 308 302 308 311 309 309 308 306 303 303 298 292 283 295 298 298 298 297 296 297 294 295 296 293 293 290 294 292 293 294 293 295 294 292 296 291 289 290 288 292 291 292 292 292 292 291 292 290 290 289 288 290 287 284 283 283 284 281 281 282 274 275 280 282 279 279 270 277 279 280 281 281 281 280 281 282 283 283 284 284 285 286
309 310 309 308 306 307 300 300 309 311 309 309 307 300 300 295 297 288 289 300 293 297 296 296 293 294 291 291 291 291 292 292 290 291 290 291 291 291 291 289 290 286 286 286 287 291 289 289 290 292 292 291 291 290 290 289 289 288 285 284 278 275 277 274 279 273 276 275 280 280 279 275 277 281 281 281 281 282 282 282 282 282 282 283 284 285 285 286
308 309 307 307 308 308 309 311 311 311 310 307 301 301 297 293 284 295 293 295 294 297 295 296 294 293 292 292 294 290 289 292 291 289 289 288 290 289 288 288 289 288 284 288 287 286 286 288 288 291 292 290 291 286 285 285 285 284 282 280 276 272 271 269 273 275 275 279 280 278 280 274 279 281 283 281 281 283 283 283 284 283 283 283 284 285 285 285
309 308 308 306 308 310 311 312 312 310 306 305 302 297 297 287 288 296 294 296 298 292 294 294 291 289 291 293 293 290 291 292 289 289 288 288 288 288 289 288 288 289 287 286 284 285 281 281 286 289 287 290 288 286 285 284 283 283 285 282 277 275 272 267 272 268 269 272 276 280 275 273 275 279 282 282 283 284 284 284 284 285 284 284 285 285 285 284
307 305 305 306 306 310 311 311 311 311 304 298 298 293 289 289 292 293 292 296 294 290 292 290 292 290 292 289 288 288 290 290 289 288 289 287 286 287 288 288 288 290 290 284 285 283 282 283 286 287 286 287 285 286 287 285 284 283 283 284 279 277 282 273 274 271 272 271 271 275 273 279 278 283 283 283 284 283 284 283 284 283 284 284 283 283 283 284
308 307 307 307 308 310 310 310 311 310 302 298 291 288 288 293 291 294 294 295 292 294 292 290 292 291 291 291 289 288 291 289 288 287 287 287 289 287 290 289 288 290 288 285 286 281 282 280 285 286 287 283 283 286 286 287 277 282 280 277 280 283 279 275 275 276 273 272 270 278 276 280 282 280 279 283 282 282 282 282 282 282 283 283 282 283 283 284
307 307 304 306 306 310 310 310 310 308 299 297 289 286 292 291 297 298 301 295 294 294 293 290 293 290 290 290 288 288 288 287 287 286 285 287 285 288 286 287 288 287 288 287 285 288 281 282 285 286 283 283 285 285 284 284 286 282 277 279 283 285 280 276 269 272 271 267 269 274 272 274 275 271 280 280 279 280 281 281 281 282 282 281 282 282 283 283
306 305 304 304 307 310 310 310 309 304 302 294 287 291 293 292 293 296 295 291 290 293 292 290 292 294 290 290 290 287 289 287 287 286 285 286 286 291 288 286 288 287 286 287 283 285 285 280 284 284 283 283 285 286 283 284 286 281 279 285 277 272 272 276 270 265 266 266 267 271 273 274 276 275 277 277 277 278 279 280 280 280 280 281 281 282 283 284
303 298 298 303 308 310 308 309 306 301 296 289 288 287 294 292 291 292 294 295 295 294 291 292 292 294 292 289 288 286 287 286 286 286 284 287 283 289 288 288 286 285 283 286 286 285 287 278 280 282 283 283 285 283 277 279 283 282 283 280 283 277 275 269 274 271 271 266 267 268 272 269 276 275 276 277 278 278 279 279 279 280 280 281 281 282 282 283
301 295 295 307 310 310 310 308 304 301 296 286 289 289 294 290 292 293 293 295 294 292 292 292 293 291 290 291 289 290 288 286 285 286 286 289 287 289 287 288 286 284 284 284 285 287 282 286 276 281 282 282 278 282 280 281 277 277 278 277 277 277 278 276 274 270 269 266 266 266 265 271 275 279 278 278 279 279 279 278 279 280 281 281 282 282 282 283
300 293 295 307 308 308 308 304 298 293 291 294 290 292 291 292 293 292 294 293 296 298 294 293 292 289 292 289 288 289 286 284 284 283 285 285 287 284 288 287 287 283 284 283 284 284 280 282 277 279 278 278 280 282 281 281 282 279 278 276 276 273 271 268 267 274 267 269 265 266 264 272 278 281 280 279 280 280 280 280 279 280 281 281 282 282 283 282
294 294 294 306 306 308 303 294 294 293 293 290 289 291 291 296 296 295 294 294 294 294 294 292 293 293 292 290 292 287 286 284 284 284 285 284 288 287 285 285 285 285 284 282 283 285 282 282 279 276 279 279 279 279 281 282 282 281 280 277 278 277 275 271 265 269 270 272 271 269 266 268 278 280 281 281 281 280 281 281 280 280 281 281 282 283 284 283
294 296 303 307 307 307 298 294 295 291 291 294 293 293 295 295 295 296 294 293 292 294 293 291 291 290 292 291 291 287 287 285 284 284 285 287 285 284 284 283 284 283 283 280 281 283 284 276 275 278 278 277 278 280 280 281 281 278 279 279 278 275 276 273 272 273 269 270 268 269 266 270 279 281 282 281 281 281 281 281 280 280 281 281 281 282 282 282
295 296 299 305 306 304 295 289 289 290 292 294 293 294 295 295 295 293 293 294 294 292 292 292 291 293 291 292 289 287 287 283 287 286 285 285 284 282 282 282 283 282 283 282 280 285 277 280 276 274 274 273 273 276 277 279 278 277 276 278 279 278 277 276 276 275 267 270 269 267 262 268 279 282 281 281 281 280 280 281 281 280 281 281 281 282 282 281
297 299 300 301 302 299 292 296 295 293 292 292 292 291 292 293 294 296 295 293 295 293 291 290 292 292 290 289 288 288 288 289 285 288 287 284 283 283 281 281 282 281 282 284 285 286 280 279 277 272 269 268 268 269 271 272 275 277 278 276 278 276 276 273 269 271 267 270 271 267 267 274 278 280 279 280 279 279 280 280 281 282 281 280 280 280 280 280
294 294 296 295 300 298 297 295 294 294 293 292 290 292 294 291 292 293 296 294 294 292 292 291 285 288 287 286 285 284 285 286 285 283 283 282 280 282 282 281 281 282 284 285 285 285 278 279 278 277 274 272 274 275 277 277 276 273 275 276 275 277 277 276 274 270 267 270 269 271 272 272 274 276 277 278 278 278 278 279 279 280 280 280 280 280 280 280
297 294 291 288 296 296 295 296 293 292 291 296 289 293 290 292 294 290 295 290 293 292 288 289 288 286 286 285 285 283 285 283 284 281 282 282 282 281 282 283 281 282 284 285 285 282 278 276 278 278 277 277 277 276 277 277 274 276 275 275 276 275 276 273 271 268 274 270 266 273 274 271 272 275 277 277 278 278 279 279 279 280 280 279 279 279 280 279
292 295 299 300 295 291 290 290 293 292 294 294 292 295 292 292 291 289 290 293 289 291 288 287 286 289 288 286 285 282 282 282 281 280 282 282 280 281 280 282 281 284 284 283 285 281 278 275 277 278 276 278 278 277 277 276 276 276 275 275 274 276 274 270 271 274 274 269 267 272 274 272 274 276 277 278 278 278 278 279 280 280 279 279 278 278 277 277
299 294 294 298 295 298 296 296 295 293 292 293 291 292 290 290 289 293 290 286 287 286 290 286 286 286 287 287 286 283 282 279 280 280 280 280 280 279 278 278 282 283 283 280 281 282 279 276 276 277 274 276 275 276 277 275 275 276 275 276 276 276 275 275 274 275 274 272 274 274 274 273 276 276 278 278 280 280 280 281 280 279 278 278 278 277 276 275
293 294 292 294 295 291 294 296 294 293 290 292 288 289 291 291 290 291 287 288 284 285 289 287 288 285 286 285 286 284 284 286 284 279 282 281 280 281 279 280 277 281 281 279 280 281 278 274 276 276 273 274 276 277 277 276 275 273 275 276 276 276 275 276 275 275 275 274 275 275 273 272 277 280 279 280 280 281 280 279 278 278 277 277 276 275 274 274
304 303 301 293 290 291 292 292 293 292 291 291 289 290 291 290 290 293 290 292 291 286 285 285 288 285 285 284 285 285 288 285 284 285 284 284 280 283 280 279 282 278 279 278 279 278 280 275 277 274 271 271 275 274 275 275 275 274 273 274 275 274 273 275 274 275 274 272 273 273 271 272 277 279 279 280 279 279 278 277 277 277 277 277 275 273 273 272
301 299 299 298 293 296 291 291 292 292 288 293 292 291 291 291 293 293 288 291 289 290 287 288 287 284 282 283 283 285 286 285 284 285 286 285 286 284 285 283 283 281 278 278 281 277 279 276 273 273 270 271 273 274 273 273 271 269 271 274 276 276 276 276 276 276 275 276 272 269 271 276 277 279 277 278 278 278 277 277 276 276 277 277 274 273 272 272
Wind_Speed
19 19 18 18 19 17 17 17 17 16 15 14 14 14 14 14 14 14 13 14 14 13 12 10 10 8 8 8 8 8 8 1 8 12 15 4 4 10 13 13 13 14 14 7 6 4 2 4 7 5 2 2 2 2 1 0 3 3 2 1 3 1 2 3 1 1 2 8 12 8 2 7 9 3 4 5 8 9 9 9 9 9 13 14 14 11 12 11
19 19 18 19 17 16 17 17 19 18 16 15 16 14 14 14 14 13 13 14 14 13 12 11 9 8 8 8 7 5 3 1 10 14 9 5 9 11 12 13 12 11 13 4 9 7 6 7 6 5 3 1 1 1 2 2 2 2 1 3 3 3 4 1 2 1 4 9 14 13 3 4 4 6 5 8 11 8 10 9 5 9 11 9 10 11 8 9
18 18 18 17 18 18 18 18 18 19 18 15 14 14 13 12 12 13 13 15 15 13 11 11 9 8 7 9 7 2 3 1 2 12 6 6 11 12 11 12 10 7 4 4 2 3 4 1 2 6 1 3 3 1 2 2 3 1 4 3 1 2 1 2 2 1 1 7 13 15 6 6 5 2 1 5 13 11 7 9 11 13 16 20 22 15 7 8
18 17 17 18 19 19 18 18 18 19 19 17 15 14 13 12 11 12 14 15 14 13 12 10 9 7 8 9 6 3 3 1 8 5 5 11 13 12 12 10 10 4 2 4 1 2 2 3 1 4 2 2 1 2 3 3 3 2 3 3 3 3 1 4 3 2 0 3 10 12 11 11 4 2 3 6 9 7 10 13 13 14 14 15 17 18 17 17
17 16 17 18 19 20 20 20 19 19 20 19 18 14 11 10 12 11 15 15 15 14 11 10 8 8 8 7 2 2 3 3 4 2 6 13 13 12 11 10 8 3 1 3 2 2 1 6 2 3 2 2 0 2 2 1 2 1 4 3 2 4 3 4 1 3 2 1 6 13 12 5 5 3 1 5 6 7 9 11 12 12 11 13 13 15 14 14
15 16 16 18 19 21 21 21 20 20 20 21 19 17 13 11 13 14 14 16 15 14 11 11 9 8 8 2 3 3 4 1 3 5 9 12 13 13 8 8 6 2 2 3 3 3 4 3 4 2 2 2 1 3 3 1 1 4 3 3 1 2 4 3 2 2 1 4 8 11 4 6 6 4 3 5 6 7 8 10 11 10 11 10 10 11 9 12
14 15 15 17 18 20 21 21 21 21 21 20 19 17 14 12 12 15 14 14 16 12 11 10 9 8 8 5 2 1 9 5 3 4 9 12 11 10 7 3 2 3 0 2 7 5 4 4 3 2 2 2 2 3 2 2 2 4 3 1 1 5 3 2 3 5 3 4 8 6 11 9 8 8 1 6 8 6 6 9 8 9 10 10 11 14 15 16
15 15 15 16 17 18 20 21 22 23 21 20 19 18 16 13 11 15 14 16 14 12 10 9 9 8 4 3 0 5 4 4 6 1 8 10 7 9 3 3 9 1 8 6 5 5 4 5 5 1 1 4 2 3 2 6 5 4 4 1 2 3 3 3 3 5 6 8 9 7 8 12 4 3 3 4 6 7 6 3 4 8 9 11 12 16 17 17
15 14 15 16 18 19 17 20 22 22 23 21 18 18 17 15 16 16 15 14 11 11 10 8 8 7 2 2 3 2 5 2 1 7 7 7 6 6 5 4 7 6 3 2 3 2 4 2 2 1 4 2 2 4 1 5 2 2 5 5 10 7 2 3 5 5 6 2 1 3 6 12 7 3 4 4 7 4 4 3 7 7 10 11 14 16 16 18
15 16 16 17 18 18 17 20 21 22 23 21 19 16 16 14 16 17 15 11 11 10 8 8 9 4 1 2 1 3 1 0 1 3 5 5 4 3 8 5 6 4 1 4 3 6 4 1 3 1 3 2 2 3 0 3 3 1 8 7 10 11 6 2 4 4 4 3 3 2 13 11 4 4 4 7 5 4 12 11 4 9 11 13 14 15 16 19
16 16 17 17 18 18 19 20 21 22 22 22 20 18 15 12 13 17 15 12 9 9 6 7 9 1 4 0 3 6 2 1 1 2 6 5 4 7 7 5 4 2 2 1 4 2 1 2 2 1 2 2 2 2 3 1 2 3 6 11 12 7 3 5 4 2 3 3 5 3 14 9 3 3 4 6 8 14 17 15 13 13 12 14 16 16 16 17
15 16 17 18 17 18 20 21 21 22 23 22 22 21 19 17 16 16 13 10 7 6 5 6 5 1 2 10 8 4 0 2 0 1 3 5 5 3 2 3 3 1 2 3 3 1 2 1 3 2 3 1 3 0 1 2 3 3 4 7 10 9 9 5 6 3 2 4 5 5 11 2 1 4 9 10 13 15 13 13 14 13 13 13 14 15 16 16
14 16 17 18 18 18 19 21 22 22 22 21 21 24 21 16 15 14 10 9 6 5 3 5 4 1 2 6 3 1 0 2 2 3 1 5 5 3 3 2 3 4 3 2 2 1 0 1 2 2 0 3 3 4 2 2 1 2 2 3 5 11 2 7 8 7 1 6 5 5 6 7 4 3 6 6 10 10 11 11 12 11 11 12 13 14 15 17
14 14 16 17 17 16 19 21 22 22 22 20 21 17 18 15 14 11 7 6 5 2 4 5 2 1 2 4 2 1 3 0 3 4 9 5 3 3 2 3 2 3 3 4 2 1 1 2 2 3 1 3 4 3 5 2 2 4 2 3 3 4 6 7 8 6 5 7 2 9 8 5 5 9 4 3 3 10 11 11 11 11 11 12 12 13 14 16
13 13 15 17 17 17 18 21 22 22 21 21 22 18 19 16 12 8 5 2 6 3 3 6 2 1 4 3 1 1 2 1 2 4 4 8 8 1 3 3 4 5 2 3 2 1 0 1 2 1 1 2 5 5 4 2 1 2 3 2 3 6 8 12 8 8 8 3 5 10 3 4 13 5 13 11 3 4 6 13 12 12 12 12 12 13 13 14
13 13 14 15 17 17 18 20 21 21 22 22 20 24 18 12 8 4 4 4 4 5 2 1 5 2 7 3 3 3 1 3 5 5 1 4 4 4 5 1 1 2 1 3 0 1 2 3 4 1 4 4 5 4 6 3 2 2 5 6 6 7 9 14 4 5 8 11 2 7 6 9 2 10 14 15 9 10 14 12 12 13 14 12 12 12 12 14
13 14 14 14 16 17 19 19 21 21 22 23 24 22 17 8 4 6 6 5 4 0 1 2 1 2 2 2 1 1 3 1 2 2 2 3 3 3 5 2 3 1 2 3 1 2 3 2 1 2 1 4 3 4 7 4 6 5 6 7 7 8 11 10 5 6 11 8 9 4 3 6 11 11 15 9 8 14 13 13 13 13 12 12 12 13 14 15
13 14 14 15 16 17 18 19 21 21 21 23 21 16 15 10 1 4 3 4 1 2 3 1 2 1 3 2 0 3 1 4 5 4 3 1 3 3 3 2 2 1 2 1 2 3 3 1 1 3 1 4 8 8 6 8 6 9 9 8 7 5 8 13 12 7 12 8 10 8 1 3 11 13 11 13 13 15 14 11 12 13 12 12 12 12 14 14
13 14 15 15 16 16 17 18 20 19 21 20 17 10 3 4 0 4 5 4 2 3 1 2 4 3 1 2 1 3 1 1 3 3 5 3 2 1 1 1 0 4 1 3 2 7 3 2 2 1 5 8 8 5 3 5 6 8 9 9 10 9 7 12 12 8 11 16 11 7 8 12 13 9 11 14 14 15 13 12 11 11 12 12 12 12 12 14
12 14 15 16 15 15 17 18 18 20 18 12 10 7 2 6 4 2 7 5 6 1 3 5 1 3 5 1 3 5 2 2 2 2 2 2 2 2 1 2 4 3 5 4 8 3 3 4 2 4 5 6 5 2 4 5 5 7 6 7 9 10 9 6 11 7 10 16 6 12 12 12 9 11 10 14 14 14 13 12 11 10 10 10 11 11 13 15
11 13 14 15 15 15 16 17 16 18 13 5 5 5 4 4 5 5 9 6 0 2 2 1 1 4 4 2 3 7 1 1 1 4 5 1 2 3 3 3 6 6 4 2 4 1 2 2 1 1 3 5 4 3 2 4 4 4 7 7 10 9 10 10 15 5 7 11 15 14 18 10 7 12 9 13 17 15 12 11 11 11 10 9 11 12 14 13
11 12 14 15 15 15 16 14 12 17 5 5 9 7 4 4 2 1 1 7 1 2 1 2 1 4 2 2 2 1 1 2 4 5 1 3 2 3 5 4 4 5 4 4 3 3 5 4 4 2 1 1 1 2 1 3 7 4 5 7 8 7 12 12 6 2 9 12 15 17 18 8 9 8 15 14 15 12 12 10 10 10 11 11 11 13 16 18
11 12 13 14 14 14 15 11 8 12 5 7 5 4 3 1 1 1 2 3 7 1 1 0 1 3 1 2 2 2 2 1 2 6 8 8 2 5 2 3 2 0 1 4 4 4 4 1 2 1 1 2 3 2 2 3 3 4 5 6 6 8 10 9 3 4 12 6 10 12 16 11 5 12 14 12 11 12 12 11 9 9 12 12 13 15 17 19
10 11 13 14 14 14 13 8 5 4 9 8 9 5 1 0 1 1 1 3 6 3 2 1 2 2 1 2 2 1 1 1 1 6 6 6 4 2 0 3 3 2 0 2 1 3 7 7 3 3 2 1 5 1 3 5 7 3 2 2 6 9 8 5 14 18 13 3 7 11 15 6 12 8 7 8 9 11 11 12 14 12 11 11 12 14 17 19
9 11 12 13 14 13 12 4 5 4 2 4 5 3 2 1 0 0 1 3 2 3 2 1 2 3 2 2 2 1 1 2 2 2 4 5 2 2 2 0 3 1 2 2 2 5 6 2 1 0 2 3 5 6 4 3 7 1 4 2 6 8 11 13 14 16 14 8 6 17 13 2 6 5 10 7 5 11 12 16 17 15 13 14 16 17 18 17
9 9 11 12 14 15 8 2 2 2 2 4 3 4 1 2 1 1 2 1 4 2 1 3 2 2 1 2 3 2 4 2 0 1 2 3 2 1 3 1 1 2 3 2 4 4 3 1 2 1 2 4 3 3 2 2 4 6 1 2 6 8 10 12 14 10 13 13 6 11 7 13 6 4 10 8 9 9 11 13 13 12 13 14 14 16 18 20
8 8 10 11 12 14 2 1 2 3 1 1 2 3 2 2 2 3 2 1 3 2 2 2 1 1 1 1 2 2 4 2 2 0 0 2 2 1 3 1 1 2 1 1 2 2 3 1 2 2 4 4 5 5 3 2 2 3 3 5 6 8 12 13 11 7 12 8 9 5 8 11 10 3 10 9 8 9 12 13 14 13 14 17 18 20 21 21
8 7 9 10 10 11 2 4 2 1 3 3 3 3 3 2 3 2 3 4 1 2 1 3 1 0 1 2 1 2 2 2 2 3 1 3 1 2 2 3 3 1 3 2 7 3 0 2 3 4 1 3 3 2 3 1 3 2 7 2 7 8 10 11 10 11 9 8 9 1 6 5 4 6 12 3 8 12 13 14 14 16 17 19 21 21 21 21
7 7 7 8 5 7 3 2 1 2 3 3 3 3 2 3 3 2 3 3 1 1 1 2 1 2 4 3 2 2 0 2 3 3 3 2 5 2 3 1 1 3 2 4 8 2 1 2 2 1 3 3 4 3 3 0 1 2 4 4 7 7 9 9 8 11 7 4 10 7 1 6 10 4 4 8 6 10 12 12 13 13 15 17 18 22 25 25
6 6 7 7 2 0 1 2 3 2 2 4 4 3 4 3 2 2 2 5 3 2 1 1 2 1 2 2 2 4 3 1 1 5 4 1 6 3 4 1 1 2 2 2 4 2 1 2 1 1 1 2 5 3 2 4 2 7 5 7 8 11 10 8 7 3 4 5 8 4 5 3 7 2 2 5 4 5 9 10 12 16 19 22 23 24 23 22
5 5 6 5 0 1 1 0 2 3 2 4 4 3 3 1 2 1 4 2 2 1 1 1 1 2 1 2 5 3 2 3 3 4 3 2 2 5 2 2 3 1 2 2 2 1 2 3 3 2 1 2 3 3 3 3 5 3 5 8 11 7 5 8 3 1 1 5 5 7 6 3 7 2 7 7 5 7 10 13 16 18 22 22 22 21 21 21
4 4 5 3 2 1 1 1 4 4 4 5 4 2 2 4 2 7 5 5 4 1 1 1 1 1 3 2 2 1 0 1 0 1 1 2 1 1 2 3 2 3 4 4 2 1 3 3 2 3 1 1 3 2 3 2 1 4 6 7 8 8 8 4 2 4 3 6 5 6 4 9 9 3 8 7 6 8 12 11 16 19 21 21 20 21 19 19
3 4 5 2 2 1 2 3 4 5 6 4 2 1 1 2 5 4 3 0 2 1 2 2 1 1 2 2 5 1 2 4 2 1 2 1 2 0 2 3 1 3 7 3 2 1 1 3 4 0 1 2 3 4 1 2 6 6 5 3 4 8 7 10 8 5 7 4 8 3 6 11 16 6 8 6 5 6 11 14 15 14 17 19 20 19 19 20
2 2 2 1 1 1 3 2 3 7 5 3 2 1 4 1 5 4 3 3 2 2 3 2 0 1 2 6 1 2 5 4 1 1 1 2 3 4 3 4 3 2 1 1 4 1 4 3 7 7 4 1 2 4 3 2 3 5 4 0 2 2 4 9 6 7 8 13 11 11 4 4 4 5 8 6 3 8 11 13 11 12 18 19 19 20 20 21
6 4 3 3 1 3 3 3 4 6 2 2 1 3 4 7 1 4 4 3 2 0 2 1 1 2 4 3 1 4 5 3 2 1 4 4 5 4 6 5 4 1 2 2 2 0 6 5 4 5 1 3 3 2 1 3 2 5 1 2 3 4 1 9 3 4 9 13 12 6 6 2 3 10 8 4 7 13 15 14 14 18 19 20 20 20 20 21
3 1 2 2 3 5 5 3 3 5 3 2 3 6 11 6 3 4 1 3 3 1 1 2 3 5 6 3 1 1 2 4 1 1 3 5 2 4 2 2 5 7 6 4 4 3 1 5 6 4 1 6 3 1 2 4 2 3 2 3 1 3 3 5 5 5 4 6 15 4 8 3 8 8 7 5 13 14 14 14 17 20 21 22 21 21 22 23
0 2 2 3 4 5 6 4 4 4 2 3 3 10 7 4 5 4 3 5 0 4 2 6 2 5 1 3 3 3 3 0 3 1 4 3 5 7 3 3 1 1 4 2 2 1 3 1 3 3 4 6 2 6 6 5 3 2 3 1 3 5 4 2 4 4 5 7 9 3 11 13 4 6 4 6 13 15 16 18 22 23 24 24 23 23 25 26
2 1 3 3 4 7 5 5 6 2 0 5 10 12 3 6 2 6 5 5 1 2 2 4 5 5 6 6 3 5 4 5 2 3 4 6 5 6 5 4 3 3 1 3 1 1 2 5 5 2 8 3 3 1 6 5 4 2 2 2 2 3 2 4 3 4 8 9 10 12 12 10 8 5 5 11 16 18 20 23 25 27 26 25 25 28 27 28
1 1 3 2 3 6 4 6 4 2 4 5 8 8 5 7 2 4 6 4 1 5 4 7 7 4 3 4 1 1 7 6 5 4 2 3 5 5 5 4 3 2 2 2 1 2 2 3 1 2 3 4 0 0 3 4 3 4 1 1 3 1 2 4 1 1 3 12 7 10 10 12 1 2 5 12 14 15 20 22 24 25 25 24 25 25 26 27
2 1 3 4 4 5 6 6 2 2 3 11 8 9 2 3 5 3 5 8 5 5 7 3 8 9 5 6 4 6 5 6 3 3 6 2 4 3 6 0 5 4 3 2 1 1 1 2 4 6 1 1 4 7 4 5 4 6 6 5 4 3 1 3 3 4 6 5 5 10 14 4 4 2 9 12 12 17 19 22 22 22 23 25 25 25 27 29
1 1 1 4 4 5 6 2 3 6 6 2 2 5 2 5 3 3 4 3 2 3 4 5 5 8 4 2 8 7 3 5 5 5 5 4 6 5 5 6 7 7 4 3 3 2 1 4 4 5 4 7 3 6 2 3 4 6 7 7 6 4 2 3 7 5 1 4 5 6 14 13 2 5 4 7 11 17 21 22 22 22 24 26 24 26 30 28
3 4 2 6 3 6 5 5 4 1 2 8 8 6 5 3 2 4 3 1 3 3 3 2 3 5 4 8 5 5 4 4 6 3 5 8 3 3 2 2 5 6 6 4 3 1 1 1 2 5 4 3 3 6 4 6 6 5 5 4 7 4 5 2 6 2 1 7 3 10 11 15 4 3 3 11 17 20 19 21 22 22 25 25 26 27 26 30
5 5 3 6 3 6 3 6 2 2 5 4 5 4 2 1 4 3 6 4 3 4 3 5 8 5 7 9 4 5 8 6 7 7 4 5 3 2 5 5 7 4 3 2 3 4 2 2 1 5 3 4 1 3 4 4 7 5 3 4 6 6 5 4 6 6 7 7 7 9 13 11 3 4 7 15 18 17 17 20 23 22 23 26 28 31 31 30
4 3 3 2 4 4 5 11 8 8 7 4 3 5 2 3 6 6 7 8 8 6 7 6 0 13 6 4 5 7 8 3 7 10 2 4 3 3 4 5 3 5 4 4 4 6 2 3 5 2 2 4 3 2 3 0 1 4 4 7 7 4 5 4 5 4 4 10 12 8 13 9 4 7 14 16 18 21 21 21 21 24 23 23 27 24 25 29
2 1 2 3 3 5 9 7 9 8 8 10 8 11 6 4 8 11 11 10 6 5 4 6 6 4 5 4 5 2 7 14 3 2 3 3 3 3 2 4 3 4 2 0 1 2 2 2 3 3 6 8 6 4 3 6 8 6 5 6 8 9 7 3 5 5 8 4 12 10 12 16 16 17 19 18 20 21 20 22 23 21 22 24 25 26 27 27
4 4 4 0 5 5 6 3 3 8 10 9 7 12 9 11 3 4 7 7 10 6 5 3 2 2 4 5 6 7 10 1 8 1 4 4 2 1 2 2 1 2 1 3 2 1 2 1 6 9 8 8 7 2 5 5 3 7 7 9 10 10 10 8 3 6 11 9 11 15 14 19 22 20 20 21 19 21 22 25 26 24 25 27 26 25 25 25
1 7 6 3 3 10 9 4 7 4 12 6 8 5 13 16 8 3 11 6 9 11 3 6 5 8 7 5 11 8 6 4 0 2 5 5 2 2 3 3 1 3 2 1 3 3 1 2 9 11 14 10 6 5 3 4 10 10 9 11 10 12 9 9 9 10 9 8 15 11 8 11 19 20 20 21 19 18 21 24 25 22 23 25 25 25 27 26
6 4 7 8 7 5 11 13 11 11 12 9 13 6 11 11 13 12 3 8 5 5 8 2 8 15 13 16 7 5 7 9 5 6 6 2 6 3 2 1 2 0 6 2 2 4 3 3 3 7 9 8 6 8 4 4 9 9 11 14 12 11 11 13 14 16 14 11 16 15 17 19 20 19 20 18 17 19 21 24 23 20 21 26 27 27 26 27
5 2 2 1 9 10 13 9 17 19 18 17 10 14 15 15 21 14 8 4 6 6 14 12 14 16 15 8 10 9 9 5 9 4 6 5 7 7 4 1 3 4 5 3 3 0 1 4 4 4 6 5 5 9 8 8 8 10 13 16 14 11 14 14 15 16 17 17 18 18 20 24 20 18 16 15 17 18 18 19 20 21 23 25 26 25 27 27
9 10 5 4 6 3 2 8 11 13 15 19 15 18 16 19 25 7 1 11 8 8 7 14 12 10 14 12 13 14 16 14 6 9 7 9 4 6 5 4 5 4 3 5 4 4 4 2 7 2 1 6 9 10 11 9 9 13 14 16 16 14 14 13 12 13 15 17 18 18 19 20 13 11 14 17 16 15 15 18 21 21 22 23 22 25 25 26
4 7 5 6 8 11 8 5 7 12 14 14 17 19 14 20 23 15 12 5 17 10 10 23 16 6 6 11 12 17 7 6 4 6 11 15 11 9 10 4 10 8 7 3 4 3 5 3 4 1 3 4 7 10 8 5 7 10 15 19 15 12 12 9 8 8 9 12 15 16 14 12 10 13 16 17 19 19 17 17 18 19 23 23 23 24 24 25
5 3 3 6 12 12 12 9 9 6 16 18 16 22 15 20 15 9 11 7 7 5 11 12 9 9 5 10 20 15 5 6 6 2 5 2 4 6 3 8 11 11 9 7 5 5 6 4 3 2 4 5 6 6 4 1 5 8 14 16 12 9 8 8 9 9 12 13 11 10 12 12 15 15 19 20 21 21 18 18 18 21 20 21 22 25 24 24
Wind_Direction
357 355 353 352 352 349 347 347 347 344 346 347 349 347 344 342 334 326 323 323 322 323 326 330 324 328 324 325 334 352 310 256 67 44 48 42 319 310 311 313 314 317 324 312 345 11 77 24 19 2 211 239 14 229 19 30 356 258 237 251 206 50 195 137 205 302 10 312 329 326 75 337 337 2 356 282 241 221 287 270 275 239 239 250 270 278 286 302
357 354 352 351 347 345 344 345 345 344 346 345 348 344 342 339 332 325 325 327 325 323 325 326 327 322 321 325 326 341 298 348 65 62 54 325 321 315 312 309 316 329 314 326 17 14 1 16 8 334 359 268 214 83 231 116 276 265 182 231 342 167 67 256 65 82 320 331 320 316 39 7 346 342 347 321 316 319 302 345 347 333 344 324 265 255 304 314
357 354 350 345 346 347 349 346 342 345 342 342 343 341 339 331 327 329 326 326 326 329 322 320 321 321 321 325 324 136 254 229 29 32 17 355 322 317 316 318 323 339 347 344 52 39 28 22 318 307 39 297 53 357 259 75 268 106 266 291 52 101 57 236 215 46 266 318 306 317 346 335 341 17 34 294 313 307 2 11 3 360 348 343 338 334 318 310
357 352 346 344 343 346 347 346 344 342 339 339 341 343 335 325 324 327 330 324 326 329 325 315 316 316 324 321 308 209 220 191 53 347 28 343 326 322 326 326 335 332 204 69 102 82 190 198 317 8 328 282 109 206 259 44 280 116 242 279 66 112 259 125 210 260 281 267 294 302 307 309 76 20 281 304 313 21 15 16 4 348 337 332 331 324 331 330
354 348 345 344 345 344 345 345 343 341 339 338 338 338 332 322 326 330 334 326 327 330 323 320 319 312 330 336 38 219 156 244 49 308 360 336 332 327 333 339 345 335 35 137 222 61 352 20 342 46 360 303 40 222 87 62 26 198 263 352 81 126 293 110 139 78 121 245 285 290 296 333 326 211 277 301 321 357 7 360 356 340 331 326 319 315 316 325
347 344 344 345 345 345 343 343 344 340 339 336 334 342 336 327 333 334 334 331 325 332 325 323 322 324 342 20 127 237 246 39 343 353 332 334 328 332 332 351 348 303 283 7 26 342 352 346 316 310 321 256 27 324 73 71 279 289 180 255 212 177 290 93 122 137 215 289 291 291 8 340 297 302 296 273 274 318 342 357 351 333 325 315 300 292 303 342
337 340 343 345 345 343 343 342 342 341 338 336 330 333 335 329 324 340 337 330 330 327 329 325 320 337 353 109 242 76 72 98 317 345 343 329 326 330 324 309 349 358 333 1 9 353 358 324 314 32 275 213 123 298 15 307 202 252 297 129 261 162 238 140 296 138 231 266 265 298 318 289 273 311 94 292 282 282 331 2 338 326 313 316 319 341 356 24
338 337 344 345 341 340 340 342 342 337 335 331 332 328 330 331 329 339 337 333 323 329 323 328 333 336 11 134 223 65 64 34 351 1 326 325 330 332 325 301 10 323 48 47 344 358 320 8 357 265 238 334 46 269 37 289 193 219 260 360 296 149 200 236 250 256 252 249 267 306 305 298 6 324 248 275 45 38 28 327 326 321 334 344 344 360 24 38
340 342 345 346 345 345 340 342 338 336 331 330 329 328 329 334 339 339 337 329 321 323 327 328 327 345 198 65 102 126 44 343 353 312 319 336 328 336 1 33 350 51 110 51 9 332 290 52 280 276 350 275 132 281 196 309 174 223 287 324 299 298 283 285 267 237 229 276 246 267 290 309 91 223 201 69 64 28 279 326 358 347 354 355 10 35 46 42
340 341 343 344 344 345 344 342 336 332 330 325 325 326 329 333 335 336 336 328 327 326 330 333 330 314 118 105 227 122 77 85 259 307 330 325 304 278 48 35 1 17 13 357 339 7 31 327 345 18 266 245 201 283 4 245 10 356 302 300 294 293 305 123 181 161 159 254 174 307 315 315 38 308 107 103 46 329 346 352 33 16 14 28 50 53 46 43
341 342 341 340 341 344 346 341 337 332 327 324 324 325 329 330 331 333 338 333 330 327 336 343 337 309 44 278 133 82 142 206 86 4 347 328 14 36 26 360 346 42 45 32 34 11 14 262 172 153 224 20 206 208 217 14 9 306 316 303 277 272 207 151 157 121 170 124 226 265 297 321 311 189 30 31 0 359 348 357 28 33 45 61 60 53 47 43
340 342 341 339 339 344 345 342 337 331 328 326 323 321 335 335 338 331 339 332 333 339 343 345 352 52 31 65 60 81 257 268 337 33 11 17 68 27 346 341 329 21 300 21 44 34 274 30 193 252 345 152 282 227 226 69 296 327 339 300 313 299 148 150 68 57 213 107 218 244 288 283 228 36 47 27 360 349 340 8 53 62 67 64 60 55 48 43
338 340 338 337 338 343 345 342 338 331 329 325 320 321 332 337 336 332 339 338 3 351 337 347 345 331 276 74 58 168 266 257 227 259 358 57 104 96 69 14 30 21 2 338 59 303 232 221 242 262 359 278 321 317 59 275 300 319 158 302 297 342 84 160 105 29 84 119 205 229 338 341 29 63 53 31 342 334 340 45 73 72 67 61 57 55 50 40
336 333 334 335 336 340 342 341 335 333 328 322 319 309 327 338 336 330 335 341 348 351 1 357 355 353 105 90 131 245 260 356 249 320 7 301 203 133 76 65 47 35 6 81 84 34 320 244 261 78 79 318 352 5 267 230 197 298 51 236 47 331 325 12 58 27 44 169 249 353 328 336 347 359 13 340 335 340 356 81 79 71 66 60 55 53 47 41
334 332 335 336 336 341 341 339 335 331 327 325 318 309 325 338 336 327 337 26 23 347 347 321 343 223 77 73 283 99 137 224 333 360 348 358 359 141 50 24 43 30 31 49 120 116 121 174 231 288 328 76 261 270 255 223 64 295 278 345 22 0 306 331 86 50 53 12 343 346 316 2 317 353 333 336 346 285 36 87 74 66 63 60 53 48 40 35
331 334 334 332 336 342 342 339 334 328 327 325 316 314 324 337 343 353 60 52 25 19 289 322 8 11 121 121 116 174 180 23 349 356 36 325 7 342 346 66 288 56 240 78 84 205 53 31 55 23 302 209 334 338 300 271 179 81 40 319 334 332 318 317 95 82 49 355 41 31 318 319 267 322 322 327 349 31 84 76 71 67 62 58 53 44 36 29
331 335 334 333 337 343 343 340 335 330 326 323 319 312 325 347 3 88 83 56 15 238 356 70 150 286 276 89 275 185 24 326 325 322 1 66 334 319 314 162 51 103 64 128 195 248 19 217 94 218 124 39 311 293 322 312 326 341 14 328 315 313 321 301 336 104 13 5 320 288 267 302 293 313 314 338 7 90 83 76 67 66 64 57 47 40 33 29
332 334 334 334 339 342 343 344 337 330 325 320 315 306 309 333 180 183 112 45 335 14 65 359 203 199 110 227 165 21 106 286 337 320 264 63 354 319 338 355 124 170 182 225 182 330 358 242 232 329 230 19 19 12 13 326 336 311 321 314 310 297 280 292 312 354 8 343 309 314 216 350 318 315 334 353 72 89 82 73 70 65 58 49 43 35 32 25
330 332 334 335 340 345 346 346 338 330 327 311 301 304 230 194 299 77 58 333 281 322 358 23 347 253 41 61 324 298 299 337 291 304 345 359 1 262 101 137 185 208 278 250 97 360 353 252 200 328 344 358 10 7 360 316 310 301 313 304 298 302 311 298 307 329 4 333 327 337 338 333 324 337 1 65 74 73 74 75 70 62 52 42 35 32 26 18
328 331 333 333 340 347 348 349 339 336 334 335 353 348 355 3 356 205 11 56 61 52 285 335 172 292 275 335 341 326 209 293 270 143 279 103 261 205 279 305 250 102 40 8 313 65 287 2 358 349 342 342 337 311 295 306 303 292 270 272 291 296 294 273 301 339 1 340 339 329 327 337 324 353 35 86 74 62 63 67 67 59 52 46 39 33 20 14
325 329 331 331 339 349 350 351 337 341 341 344 320 18 35 335 336 338 336 312 78 52 340 267 272 273 335 317 330 359 22 153 87 329 3 63 259 207 359 291 4 349 50 258 279 284 239 310 167 9 331 316 317 293 252 268 227 276 304 303 313 305 303 306 291 337 351 2 309 336 326 346 337 340 79 87 73 62 57 65 61 50 44 40 36 25 17 6
323 326 330 331 338 349 349 349 341 340 8 17 48 69 80 62 21 336 284 302 7 119 321 264 16 278 245 221 54 39 96 283 241 334 62 322 268 287 14 50 36 343 359 310 235 336 327 324 94 67 9 131 137 189 226 296 315 305 322 313 295 318 316 287 247 7 356 331 310 336 322 338 332 325 94 82 79 77 70 66 63 48 37 33 25 17 4 359
321 324 327 333 338 345 349 344 349 344 16 23 55 67 74 39 360 222 300 237 274 180 322 121 218 268 341 110 87 179 344 14 282 9 354 336 347 53 290 3 42 295 224 28 349 328 320 47 87 45 156 198 173 132 291 285 232 347 332 319 318 332 351 324 163 352 324 291 303 331 308 307 320 92 89 85 86 82 72 64 59 49 40 34 23 10 0 356
317 324 327 334 336 345 340 353 313 7 49 80 80 71 123 16 46 262 235 265 317 321 232 101 306 290 331 356 161 318 329 105 254 340 25 342 47 256 7 81 134 215 237 66 81 276 270 330 68 116 122 264 350 339 349 335 313 81 51 345 324 332 319 280 309 317 314 242 354 329 312 307 141 127 101 93 88 69 45 45 44 43 42 30 12 6 4 356
314 325 330 335 337 340 343 328 37 49 174 78 73 126 128 110 17 303 231 268 194 247 85 264 149 235 141 153 91 247 125 146 292 292 323 340 36 265 57 266 286 185 156 124 230 244 258 48 337 218 57 41 15 332 27 334 297 274 127 359 307 298 304 311 311 328 321 306 90 16 332 3 93 101 147 135 84 50 33 32 26 25 26 13 8 0 356 355
315 326 334 343 340 339 325 279 63 143 145 67 87 163 153 107 201 206 262 12 274 90 265 160 190 140 193 140 22 60 146 233 242 327 314 12 261 305 146 182 342 302 168 230 306 284 314 78 3 29 58 33 10 298 27 254 289 287 109 305 298 299 299 305 318 340 306 307 356 29 300 286 296 42 134 108 74 52 38 32 24 20 14 6 3 0 357 355
318 330 338 351 351 337 268 10 110 186 301 140 178 159 169 139 173 203 276 204 244 128 212 41 253 104 192 27 342 160 259 111 333 162 27 24 345 51 281 336 157 78 10 232 277 224 153 87 83 66 20 356 322 293 83 312 281 263 65 292 299 299 311 312 312 291 274 295 300 229 230 267 293 296 130 107 81 45 27 23 18 13 5 3 360 359 356 355
319 334 341 359 10 17 54 110 142 119 68 99 125 127 125 139 147 224 249 330 229 126 249 191 51 60 266 130 197 238 6 7 258 150 323 337 232 182 288 238 254 168 148 185 275 61 253 93 51 357 7 286 283 36 357 26 266 2 330 295 282 302 301 300 298 289 290 318 305 234 201 265 265 123 118 85 38 15 16 11 7 5 4 358 357 355 352 352
322 335 343 0 10 33 44 65 61 95 125 105 125 109 87 163 216 299 55 266 127 99 43 89 36 170 359 188 100 48 24 67 276 44 316 274 43 288 241 102 116 116 29 238 262 104 46 49 31 249 257 265 102 88 28 206 247 338 324 259 242 265 274 266 274 286 300 321 288 290 260 268 275 264 275 92 71 12 5 4 2 3 357 354 352 353 355 354
321 341 344 358 13 262 75 64 71 88 117 104 111 132 138 183 225 226 354 251 62 218 142 61 251 305 336 288 225 24 208 124 189 313 31 281 3 48 60 353 179 151 184 57 280 2 328 317 314 278 320 42 134 100 36 35 335 289 256 308 329 309 293 285 272 305 297 243 260 251 86 352 287 298 312 37 45 14 358 358 357 355 355 356 357 354 347 343
326 340 360 349 85 12 169 132 170 175 121 122 122 126 202 208 284 188 229 231 64 207 74 17 214 30 34 221 254 109 128 341 332 5 195 92 179 61 135 198 160 165 186 197 225 291 27 126 173 57 22 81 119 135 181 230 257 282 11 360 319 284 212 253 283 210 128 284 134 120 132 343 288 252 99 92 71 27 14 3 354 355 355 354 351 345 340 338
317 355 24 33 94 22 258 32 157 163 145 138 175 173 231 271 127 208 238 96 274 98 234 169 93 78 86 71 251 321 302 303 272 45 339 38 23 289 53 259 80 278 239 182 191 103 164 125 37 331 22 271 212 252 174 197 88 21 20 11 350 314 330 306 185 285 240 289 128 162 12 314 250 354 130 117 54 28 16 4 1 358 351 344 341 337 333 333
314 73 84 80 143 112 95 105 138 147 135 170 195 253 240 82 271 191 256 192 255 36 178 51 14 21 107 342 238 37 121 254 115 115 115 122 214 303 247 268 308 236 279 65 286 296 234 92 316 359 224 37 224 226 257 214 43 29 31 8 348 333 329 297 311 282 282 241 139 152 9 263 272 240 151 93 55 23 8 10 2 351 338 335 334 329 329 329
40 121 190 142 279 343 131 179 141 143 134 192 236 130 72 213 238 50 279 244 287 39 47 74 119 119 210 250 278 151 273 172 110 141 194 169 212 226 197 223 188 167 224 130 245 234 255 221 191 182 170 14 40 38 30 12 29 70 112 210 327 279 287 296 326 325 314 293 284 267 252 219 309 112 147 100 59 4 11 3 350 338 335 332 329 325 326 326
105 83 135 118 208 214 192 206 155 166 167 226 124 201 241 247 261 241 219 249 263 284 119 78 210 54 246 219 242 250 230 311 123 106 210 198 225 212 198 189 208 257 114 210 160 66 232 284 60 14 36 300 107 3 308 82 125 116 41 204 236 238 287 258 360 312 311 314 316 145 197 223 292 125 149 147 357 11 2 350 339 332 331 331 326 326 325 325
147 97 177 204 198 198 171 194 150 154 212 169 173 211 223 197 246 155 266 76 84 229 123 199 160 263 262 243 138 218 130 229 91 209 230 213 270 218 97 148 178 197 183 208 122 216 122 223 88 95 36 40 26 249 25 345 272 110 197 277 58 55 247 283 288 156 234 269 263 266 280 287 119 136 116 19 1 354 344 336 331 330 332 330 327 328 328 327
177 136 224 201 228 181 164 158 150 155 202 169 180 246 230 262 219 175 182 182 281 124 102 308 263 194 246 273 163 174 178 106 230 191 262 125 261 179 167 217 78 180 280 351 214 136 256 49 172 163 126 47 346 87 67 30 347 103 262 5 79 141 123 157 261 305 275 263 269 270 278 296 295 291 116 351 353 341 338 335 332 331 334 331 330 330 331 329
162 229 269 242 223 163 159 155 144 160 105 180 220 237 104 228 187 209 100 112 161 93 199 189 268 155 265 240 242 165 157 213 132 135 271 167 294 101 140 172 158 186 49 323 261 60 78 273 160 341 94 145 276 125 91 63 3 291 315 28 222 242 224 107 110 313 309 283 300 286 297 273 275 280 27 344 346 343 340 336 332 332 333 330 330 330 330 328
134 307 276 94 116 143 134 153 164 141 168 207 226 255 207 234 91 180 187 135 113 135 233 212 239 202 206 235 177 91 156 215 135 201 303 191 225 154 167 148 170 170 348 151 215 91 285 220 54 168 142 149 224 192 235 132 98 68 117 136 4 76 231 155 287 236 258 269 301 290 350 294 85 76 326 337 347 339 336 331 330 327 328 327 328 329 329 328
217 208 238 116 139 132 138 149 134 106 173 222 215 225 80 230 222 199 200 177 207 171 228 210 212 251 176 242 148 264 194 232 167 225 187 254 237 126 178 163 152 146 118 317 100 278 179 87 260 134 193 184 214 185 219 157 175 163 185 184 185 140 219 171 256 180 229 257 255 285 302 280 113 58 356 335 340 338 331 327 323 323 325 325 326 328 329 327
259 228 242 148 129 130 137 163 159 193 211 310 351 255 139 227 175 231 211 272 257 307 251 201 168 210 226 214 246 172 248 192 188 205 200 249 188 266 152 157 155 144 148 102 164 199 165 188 220 147 205 220 161 51 331 270 230 219 210 221 167 143 166 269 276 112 310 216 245 264 268 273 269 6 288 324 340 331 327 323 320 322 326 324 327 327 330 327
169 230 191 151 138 156 177 161 217 42 237 212 226 161 231 145 187 180 159 121 246 221 52 240 263 242 211 219 244 158 187 211 197 200 219 217 154 246 106 56 113 142 156 171 166 29 173 59 160 224 223 247 26 341 296 265 240 210 201 168 135 163 148 211 275 204 154 226 196 253 282 286 121 173 348 344 333 327 323 323 322 326 326 326 326 327 321 319
187 224 62 155 147 168 175 237 107 221 225 246 18 273 90 234 204 159 169 171 204 197 221 214 205 187 232 220 196 201 163 243 155 208 183 212 185 139 143 128 135 119 76 116 88 179 89 127 235 225 90 104 88 91 52 53 120 123 168 147 172 190 183 215 250 279 275 261 246 253 247 251 143 65 340 334 323 321 323 325 325 326 325 324 327 328 324 318
187 176 139 186 163 205 196 220 207 217 241 257 231 263 123 245 179 159 214 185 183 179 199 198 343 215 246 158 164 214 158 270 198 182 199 168 162 84 138 139 175 155 173 183 160 174 147 190 149 247 235 159 124 120 147 61 320 231 194 187 197 193 177 247 268 255 249 236 224 226 253 271 161 351 325 319 321 324 325 324 326 325 325 324 328 322 320 319
147 97 94 130 171 195 210 225 237 234 209 227 214 234 177 233 215 205 181 203 195 174 136 232 187 148 196 169 210 157 202 211 281 211 86 157 117 108 13 118 346 123 51 211 171 72 217 188 158 242 263 276 261 247 189 196 213 214 212 194 200 179 200 176 237 222 250 226 196 220 255 269 292 306 310 317 323 324 325 324 323 326 325 323 325 325 322 320
194 228 132 105 187 231 272 40 301 246 245 228 242 241 193 233 184 234 206 238 176 191 230 114 19 149 133 126 214 205 217 196 202 210 161 160 127 243 161 105 122 93 214 116 83 132 180 209 215 225 233 236 261 64 110 103 177 218 216 180 198 192 200 215 214 233 234 257 261 244 250 285 292 304 313 319 327 328 328 325 325 330 330 325 325 323 319 318
125 227 142 185 164 228 237 195 226 202 236 193 243 196 212 218 212 260 174 218 193 182 160 192 172 160 216 166 217 215 202 187 302 102 193 138 90 127 46 149 101 208 210 142 146 93 137 215 217 227 243 251 271 292 161 206 254 261 259 253 212 200 191 181 205 237 251 287 272 261 259 270 284 302 309 319 326 328 326 322 321 330 330 320 319 317 317 320
210 220 182 178 182 205 203 233 213 229 243 205 238 216 237 233 211 222 130 230 47 193 177 231 201 215 193 197 163 190 164 203 164 204 106 114 113 126 121 111 205 319 182 144 227 204 189 230 233 207 251 243 276 274 249 223 249 255 254 259 248 218 182 184 215 235 250 241 254 281 293 287 289 302 310 317 329 328 323 319 318 325 320 317 320 324 325 324
233 350 227 71 215 237 205 186 176 205 219 213 239 229 238 223 232 213 182 136 170 226 201 224 216 202 213 179 171 211 164 164 235 151 168 146 165 144 171 123 190 169 160 142 159 189 101 255 195 228 254 244 231 252 254 237 245 253 253 256 256 241 230 216 219 230 238 245 253 268 277 279 289 303 310 319 323 322 320 312 314 323 321 316 325 327 327 329
201 192 205 247 261 310 239 160 186 187 223 213 224 227 228 228 238 186 215 174 201 226 191 241 226 183 203 192 197 215 204 205 162 176 177 143 179 187 186 178 139 137 156 162 149 247 146 261 113 233 244 236 220 239 246 240 245 256 259 261 257 255 251 246 240 242 248 258 260 264 273 282 293 304 319 317 314 316 314 312 318 320 318 318 329 331 329 330
196 202 169 151 218 233 222 182 193 195 227 218 220 235 228 226 237 212 220 198 218 197 178 211 215 164 187 197 211 227 202 186 131 166 161 170 191 181 161 213 140 156 164 148 174 225 199 241 96 165 265 250 189 215 238 220 241 258 271 268 260 242 248 242 224 228 236 257 277 287 285 286 309 327 316 316 319 321 321 318 320 320 320 324 333 329 328 326
194 6 105 173 244 209 217 190 213 173 233 222 208 224 219 229 233 192 243 208 216 201 195 199 183 144 199 196 220 214 125 113 103 74 167 83 57 85 75 153 159 151 168 169 174 173 193 185 183 178 260 255 135 157 171 165 255 261 254 257 253 240 228 233 235 227 240 259 275 274 280 305 319 324 323 322 322 318 323 323 324 317 315 331 329 324 322 323